TIME,DELAY(SENSOR),PRES,OXYGEN,RAWTEMP,T(OPTODE),TCPHASE,FLUOR,BETA(BETA700),BETA(BETA412),BETA(BETA440),CDOM,C(CSC),ED(ED412.20),ED(ED444.00),ED(ED489.60),ED(ED554.30),LU(LU412.10),LU(LU443.90),LU(LU489.70),LU(LU554.70),COMP,TILTX,TILTY,CHECK
1361155174,5808,878.0900268554688000,33.2757797241210940,559.6826171875000000,4.4957327842712400,56.5530090332031250,56,98,100,77,81,15533,0,0,0,0,2147125897,2147775734,2147571638,2147569837,3089,2,13,6932
1361158770,5808,935.7399902343750000,39.5741004943847660,564.8729858398438000,4.3347721099853520,55.6244583129882800,55,98,100,78,82,15533,0,0,0,0,2147126464,2147772827,2147574116,2147566848,495,3,13,30574
1361162370,5809,945.7000122070312000,38.9239311218261700,565.7899780273438000,4.3063139915466310,55.7295188903808600,55,99,99,78,82,15531,0,0,0,0,2147123776,2147763776,2147572096,2147568374,69,2,13,1549
1361165970,5808,978.1500244140625000,39.9966087341308600,568.6068115234375000,4.2188491821289060,55.5989112854003900,54,98,100,78,83,15532,0,0,0,0,2147126198,2147772352,2147572891,2147567122,347,2,13,55165
1361169570,5810,983.8400268554688000,40.7238998413085940,569.5651855468750000,4.1890702247619630,55.5010681152343750,54,99,100,78,82,15528,0,0,0,0,2147124434,2147775277,2147570203,2147570240,3377,2,13,54923
1361173170,5812,984.6599731445312000,40.7132415771484400,569.6602783203125000,4.1861147880554200,55.5037002563476560,55,97,101,78,81,15524,0,0,0,0,2147128182,2147772288,2147573467,2147568713,88,2,13,15699
1361176770,5811,984.0900268554688000,40.6037216186523440,569.8010864257812000,4.1817398071289060,55.5268211364746100,55,97,100,77,83,15528,0,0,0,0,2147126884,2147781056,2147570587,2147574500,115,2,13,35125
1361180370,5808,987.3900146484375000,40.7931900024414060,570.0848999023438000,4.1729221343994140,55.5006904602050800,54,98,102,78,81,15525,0,0,0,0,2147125723,2147773494,2147572315,2147568338,329,2,13,55535
1361183970,5810,983.5499877929688000,40.9200706481933600,570.5640869140625000,4.1580300331115720,55.4826812744140600,55,98,100,76,82,15526,0,0,0,0,2147126948,2147770505,2147575680,2147569371,3362,2,13,30558
1361187570,5812,984.9500122070312000,41.1576499938964840,570.4680786132812000,4.1610131263732910,55.4487800598144500,55,99,100,77,81,15528,0,0,0,0,2147124662,2147769280,2147573659,2147570404,255,2,13,1529
1361191170,5810,981.3300170898438000,41.2093811035156250,570.5634765625000000,4.1580491065979000,55.4410514831543000,55,97,100,78,82,15525,0,0,0,0,2147124470,2147773138,2147574116,2147567222,3123,2,13,21540
1361194770,5810,982.6599731445312000,41.4282989501953100,570.6464843750000000,4.1554698944091800,55.4076004028320300,56,98,103,78,81,15524,0,0,0,0,2147129965,2147769883,2147574262,2147570953,900,2,13,34716
1361198370,5809,978.3300170898438000,41.6954498291015600,571.1024169921875000,4.1412978172302250,55.3778381347656250,55,97,100,77,83,15528,0,0,0,0,2147126866,2147772041,2147575808,2147571364,245,2,13,62418
1361201970,5811,987.9000244140625000,41.2253494262695300,570.6129150390625000,4.1565132141113280,55.4400100708007800,55,98,100,78,81,15524,0,0,0,0,2147128832,2147772150,2147569664,2147569819,3375,2,13,14814
1361205570,5809,985.4799804687500000,40.8607292175293000,570.3494262695312000,4.1647028923034670,55.4923515319824200,54,97,101,77,81,15526,0,0,0,0,2147125668,2147764864,2147571968,2147569170,3560,2,13,4320
1361209170,5810,989.3599853515625000,41.1395416259765600,570.6779174804688000,4.1544928550720215,55.4495506286621100,55,97,100,78,82,15523,0,0,0,0,2147124022,2147772781,2147573732,2147568694,3580,2,13,55510
1361212770,5807,984.3099975585938000,40.9980888366699200,570.4077148437500000,4.1628909111022950,55.4691200256347660,55,97,100,79,82,15514,0,0,0,0,2147129270,2147772297,2147576713,2147567424,3586,2,13,40228
1361216370,5809,984.2999877929688000,41.1135292053222660,570.4550781250000000,4.1614189147949220,55.4587287902832000,54,97,100,78,82,15514,0,0,0,0,2147126820,2147771529,2147575149,2147570971,3400,2,13,25095
1361219970,5808,983.2600097656250000,41.0282707214355500,570.5524291992188000,4.1583919525146480,55.4674186706543000,55,101,99,78,83,15512,0,0,0,0,2147126400,2147778176,2147572800,2147566582,3420,2,13,11801
1361223570,5813,992.2100219726562000,41.2314109802246100,570.4790039062500000,4.1606750488281250,55.4367218017578100,55,97,100,78,82,15510,0,0,0,0,2147124763,2147774363,2147576932,2147568530,250,2,13,62676
1361227170,5809,987.8900146484375000,41.1196708679199200,570.4376831054688000,4.1619591712951660,55.4548912048339840,54,98,99,78,82,15513,0,0,0,0,2147123675,2147772836,2147571803,2147565376,331,2,13,1858
1361230770,5810,985.7100219726562000,41.0352287292480500,571.1784057617188000,4.1389350891113280,55.4720115661621100,54,97,100,78,83,15514,0,0,0,0,2147126308,2147774857,2147575616,2147569124,3554,2,13,12894
1361234370,5807,988.1599731445312000,41.1010513305664060,570.8765869140625000,4.1483168601989750,55.4603996276855500,55,98,100,78,82,15511,0,0,0,0,2147124836,2147776109,2147572443,2147570048,143,2,13,1104
1361237970,5809,989.0399780273438000,41.0647392272949200,570.5842285156250000,4.1574039459228520,55.4611396789550800,54,99,99,78,81,15512,0,0,0,0,2147126235,2147767542,2147573001,2147567680,281,2,13,65300
1361241570,5811,986.8599853515625000,41.5283088684082000,570.9658813476562000,4.1455421447753910,55.4011306762695300,55,97,100,78,82,15502,0,0,0,0,2147125467,2147777042,2147573174,2147570212,3422,2,13,16211
1361245170,5809,993.0700073242188000,41.2282295227050800,570.4857788085938000,4.1604628562927250,55.4420509338378900,56,98,100,77,81,15510,0,0,0,0,2147124361,2147771922,2147572992,2147568091,146,3,13,38299
1361248770,5809,991.7500000000000000,41.1012382507324200,570.4898071289062000,4.1603388786315920,55.4549598693847660,55,98,101,77,83,15507,0,0,0,0,2147123648,2147773641,2147575277,2147567305,54,2,13,40391
1361252370,5807,997.2399902343750000,40.6272888183593750,570.1876220703125000,4.1697330474853520,55.5268287658691400,55,99,100,77,82,15508,0,0,0,0,2147124909,2147773723,2147572489,2147567122,334,2,13,55289
1361255970,5808,990.0399780273438000,40.7309913635253900,570.2426147460938000,4.1680221557617190,55.5095710754394500,54,98,99,78,82,15508,0,0,0,0,2147126107,2147771620,2147573613,2147568676,80,2,13,2282
1361259570,5811,992.8499755859375000,41.3321189880371100,570.8154296875000000,4.1502189636230470,55.4296302795410160,54,98,100,78,81,15488,0,0,0,0,2147125485,2147773750,2147572050,2147568045,459,2,13,1765
1361263170,5811,989.5999755859375000,41.2937889099121100,570.8585815429688000,4.1488780975341800,55.4303512573242200,56,101,101,78,82,15488,0,0,0,0,2147123328,2147771300,2147570313,2147570486,8,3,13,54674
1361266770,5809,991.2299804687500000,41.1551094055175800,570.4855957031250000,4.1604690551757810,55.4510192871093750,55,98,99,78,82,15502,0,0,0,0,2147123437,2147775862,2147577298,2147572022,277,2,13,55132
1361270370,5809,989.3800048828125000,41.5536193847656250,571.4732055664062000,4.1297698020935060,55.3996696472168000,55,98,100,78,82,15503,0,0,0,0,2147122697,2147774793,2147580297,2147573184,125,2,13,8358
1361273970,5810,980.9600219726562000,41.4941787719726560,571.5491943359375000,4.1274089813232420,55.4110794067382800,54,99,101,78,82,15503,0,0,0,0,2147126619,2147767597,2147574811,2147570093,3539,2,13,64451
1361277570,5809,990.0700073242188000,41.7756996154785160,571.4246826171875000,4.1312789916992190,55.3708305358886700,54,97,100,81,82,15490,0,0,0,0,2147124644,2147771657,2147571309,2147567808,76,2,13,10994
1361281170,5809,986.6900024414062000,41.2158508300781250,571.2177734375000000,4.1377120018005370,55.4492187500000000,55,99,100,78,82,15496,0,0,0,0,2147125357,2147780352,2147571949,2147567853,203,2,13,41664
1361284770,5810,990.2800292968750000,41.1880607604980500,571.4224853515625000,4.1313462257385250,55.4511985778808600,56,97,100,78,82,15496,0,0,0,0,2147125302,2147775305,2147573220,2147567277,112,2,13,12003
1361288370,5809,990.3099975585938000,40.8077583312988300,571.0936279296875000,4.1415729522705080,55.5045814514160160,54,98,100,78,82,15490,0,0,0,0,2147125769,2147770340,2147574217,2147571337,3370,2,13,25846
1361291970,5809,986.5100097656250000,41.1673393249511700,571.4686279296875000,4.1299152374267580,55.4537696838378900,55,97,100,77,82,15496,0,0,0,0,2147125723,2147772928,2147570404,2147570340,76,3,13,2107
1361295570,5809,982.1699829101562000,40.9973411560058600,571.4628295898438000,4.1300959587097170,55.4814414978027340,55,99,100,77,81,15494,0,0,0,0,2147125723,2147772361,2147575890,2147567552,472,2,13,3020
1361299170,5809,989.0200195312500000,41.3045806884765600,572.3353881835938000,4.1029639244079590,55.4448089599609400,55,97,99,78,81,15495,0,0,0,0,2147125924,2147777408,2147573101,2147568923,3249,2,13,9514
1361301355,5809,992.7000122070312000,41.6070289611816400,571.6702880859375000,4.1236419677734375,55.3940010070800800,55,98,99,77,81,15493,0,0,0,0,2147124891,2147773238,2147574994,2147567689,168,2,13,42635
